FW2061 Weather Reports


Display with metric or nautical units.
time (UTC)temp
F
wind
direction
speed
MPH
gust
MPH
rain 1hr
in
rain 24hr
in
rain mn
in
humidity
%
barometer
mb
20260505004059 70 233 1.0 5.0 0.00 0.00 0.00 59 1008.9
20260505003541 70 112 1.0 4.0 0.00 0.00 0.00 58 1008.9
20260505003031 71 52 1.0 4.0 0.00 0.00 0.00 59 1008.9
20260505002541 71 52 1.0 4.0 0.00 0.00 0.00 58 1008.9
20260505002109 72 247 0.0 4.0 0.00 0.00 0.00 58 1008.9
20260505001531 72 217 1.0 5.0 0.00 0.00 0.00 57 1008.8
20260505001029 72 214 2.0 5.0 0.00 0.00 0.00 56 1008.9
20260505000540 73 160 1.0 3.0 0.00 0.00 0.00 57 1008.9
20260505000050 73 218 1.0 3.0 0.00 0.00 0.00 57 1008.9
20260504235531 73 219 1.0 3.0 0.00 0.00 0.00 56 1008.9
20260504235022 73 223 1.0 5.0 0.00 0.00 0.00 57 1009.0
20260504234525 73 242 1.0 5.0 0.00 0.00 0.00 57 1008.9
20260504234041 73 236 1.0 4.0 0.00 0.00 0.00 57 1009.0
20260504233524 74 210 2.0 3.0 0.00 0.00 0.00 56 1009.1
20260504233037 74 190 1.0 3.0 0.00 0.00 0.00 56 1009.1
20260504232547 74 280 1.0 3.0 0.00 0.00 0.00 57 1009.0
20260504232030 73 294 1.0 4.0 0.00 0.00 0.00 57 1008.9
20260504231542 72 307 0.0 4.0 0.00 0.00 0.00 58 1008.9
20260504231051 74 337 3.0 4.0 0.00 0.00 0.00 58 1009.0
20260504230535 75 315 2.0 4.0 0.00 0.00 0.00 51 1008.9
20260504230026 75 278 1.0 3.0 0.00 0.00 0.00 51 1008.9
20260504225528 75 241 1.0 6.0 0.00 0.00 0.00 52 1008.9
20260504225040 75 120 3.0 6.0 0.00 0.00 0.00 52 1009.0
20260504224532 76 233 1.0 8.0 0.00 0.00 0.00 51 1009.0
20260504224101 75 132 3.0 8.0 0.00 0.00 0.00 50 1008.9
20260504223523 75 37 3.0 8.0 0.00 0.00 0.00 50 1009.0
20260504223034 74 116 2.0 6.0 0.00 0.00 0.00 50 1009.0
20260504222526 73 168 1.0 4.0 0.00 0.00 0.00 56 1009.1
20260504222029 72 124 1.0 5.0 0.00 0.00 0.00 63 1009.2
20260504221542 71 120 3.0 11.0 0.00 0.00 0.00 65 1009.3
20260504221031 71 118 7.0 11.0 0.00 0.00 0.00 63 1009.4
20260504220543 72 173 6.0 8.0 0.00 0.00 0.00 60 1009.4
20260504220050 71 125 6.0 8.0 0.00 0.00 0.00 65 1009.6
20260504215532 70 123 6.0 8.0 0.00 0.00 0.00 63 1009.5
20260504215023 68 137 5.0 6.0 0.00 0.00 0.00 71 1009.5
20260504214535 68 122 4.0 7.0 0.00 0.00 0.00 72 1009.6
20260504214108 68 114 5.0 9.0 0.00 0.00 0.00 72 1009.7
20260504213531 69 117 7.0 10.0 0.00 0.00 0.00 68 1009.8
20260504213041 70 121 7.0 10.0 0.00 0.00 0.00 62 1009.7
20260504212548 70 126 6.0 9.0 0.00 0.00 0.00 59 1009.7
20260504212100 71 125 7.0 8.0 0.00 0.00 0.00 60 1009.6
20260504211551 70 131 7.0 7.0 0.00 0.00 0.00 61 1009.8
20260504211042 70 132 4.0 5.0 0.00 0.00 0.00 62 1009.8
20260504210525 69 126 4.0 5.0 0.00 0.00 0.00 64 1009.9
20260504210037 69 133 4.0 5.0 0.00 0.00 0.00 66 1010.0
20260504205549 68 126 4.0 5.0 0.00 0.00 0.00 70 1009.9
20260504205032 69 125 4.0 5.0 0.00 0.00 0.00 69 1010.0
20260504204545 70 121 3.0 6.0 0.00 0.00 0.00 61 1010.0
20260504204053 69 131 4.0 6.0 0.00 0.00 0.00 62 1010.0
20260504203544 69 117 5.0 6.0 0.00 0.00 0.00 61 1010.0
20260504203051 69 128 5.0 6.0 0.00 0.00 0.00 63 1010.0
20260504202533 69 128 6.0 6.0 0.00 0.00 0.00 63 1010.0
20260504202025 68 129 5.0 6.0 0.00 0.00 0.00 63 1010.1
20260504201533 68 124 4.0 6.0 0.00 0.00 0.00 63 1010.1
20260504201045 67 119 5.0 6.0 0.00 0.00 0.00 63 1010.1
20260504200528 68 127 5.0 6.0 0.00 0.00 0.00 63 1010.0
20260504200039 68 127 5.0 6.0 0.00 0.00 0.00 65 1010.1
20260504195552 67 121 5.0 6.0 0.00 0.00 0.00 65 1010.1
20260504195104 67 124 6.0 7.0 0.00 0.00 0.00 65 1010.1
20260504194524 66 126 6.0 7.0 0.00 0.00 0.00 68 1010.1
20260504194055 65 127 6.0 7.0 0.00 0.00 0.00 70 1010.1
20260504193527 64 131 5.0 7.0 0.00 0.00 0.00 78 1010.1
20260504193058 64 135 5.0 7.0 0.00 0.00 0.00 81 1010.2
20260504192549 63 136 5.0 9.0 0.00 0.00 0.00 82 1010.1
20260504192032 63 119 7.0 9.0 0.00 0.00 0.00 82 1010.2
20260504191525 62 125 8.0 10.0 0.00 0.00 0.00 82 1010.1
20260504191028 62 128 8.0 10.0 0.00 0.00 0.00 81 1010.2
20260504190536 63 124 7.0 9.0 0.00 0.00 0.00 81 1010.2
20260504190048 63 124 6.0 9.0 0.00 0.00 0.00 81 1010.3
20260504185600 63 118 7.0 10.0 0.00 0.00 0.00 79 1010.3
20260504185029 63 130 8.0 10.0 0.00 0.00 0.00 79 1010.3
20260504184600 62 128 7.0 9.0 0.00 0.00 0.00 82 1010.3
20260504184047 62 119 5.0 10.0 0.00 0.00 0.00 82 1010.5
20260504183530 62 123 7.0 10.0 0.00 0.00 0.00 82 1010.3
20260504183023 61 136 6.0 9.0 0.00 0.00 0.00 83 1010.3
20260504182535 61 129 6.0 8.0 0.00 0.00 0.00 85 1010.3
20260504182037 61 120 7.0 8.0 0.00 0.00 0.00 85 1010.4
20260504181528 61 129 6.0 7.0 0.00 0.00 0.00 85 1010.4
20260504181040 61 123 5.0 6.0 0.00 0.00 0.00 83 1010.5
20260504180551 62 122 5.0 6.0 0.00 0.00 0.00 83 1010.5
20260504180034 62 136 4.0 5.0 0.00 0.00 0.00 84 1010.5
20260504175543 61 141 3.0 4.0 0.00 0.00 0.00 84 1010.5
20260504175032 61 141 2.0 4.0 0.00 0.00 0.00 83 1010.5
20260504174537 61 126 3.0 4.0 0.00 0.00 0.00 83 1010.3
20260504174029 61 122 3.0 5.0 0.00 0.00 0.00 83 1010.3
20260504173540 61 124 3.0 5.0 0.00 0.00 0.00 83 1010.3
20260504173040 61 120 4.0 5.0 0.00 0.00 0.00 82 1010.3
20260504172533 61 157 4.0 5.0 0.00 0.00 0.00 81 1010.2
20260504172045 61 129 3.0 4.0 0.00 0.00 0.00 82 1010.3
20260504171528 61 203 1.0 2.0 0.00 0.00 0.00 81 1010.3
20260504171059 61 203 0.0 3.0 0.00 0.00 0.00 81 1010.4
20260504170531 60 202 1.0 3.0 0.00 0.00 0.00 83 1010.4
20260504151031 59 113 3.0 6.0 0.00 0.00 0.00 83 1009.9
20260504150611 59 131 3.0 6.0 0.00 0.00 0.00 81 1009.9
20260504141034 58 132 4.0 7.0 0.00 0.00 0.00 85 1009.4
20260504140542 58 134 4.0 7.0 0.00 0.00 0.00 85 1009.4
20260504130529 54 207 0.0 0.0 0.00 0.00 0.00 86 1008.9
20260504110548 56 207 0.0 0.0 0.00 0.00 0.00 81 1008.9
20260504100551 57 207 0.0 0.0 0.00 0.00 0.00 86 1009.0
20260504090105 57 207 0.0 0.0 0.00 0.00 0.00 80 1008.8
20260504081611 58 207 0.0 0.0 0.00 0.00 0.00 77 1008.8
20260504081032 58 207 0.0 0.0 0.00 0.00 0.00 78 1008.8
20260504080545 58 207 0.0 0.0 0.00 0.00 0.00 78 1008.8
20260504060104 64 239 1.0 2.0 0.00 0.00 0.00 64 1008.8
20260504050541 65 245 1.0 3.0 0.00 0.00 0.00 67 1008.9
20260504045538 65 257 1.0 3.0 0.00 0.00 0.00 64 1009.0
20260504045039 65 255 1.0 2.0 0.00 0.00 0.00 64 1009.0
20260504044531 65 257 1.0 2.0 0.00 0.00 0.00 64 1009.0
20260504044043 66 257 1.0 2.0 0.00 0.00 0.00 64 1008.9
20260504043526 66 257 1.0 2.0 0.00 0.00 0.00 64 1009.0
20260504043038 65 251 0.0 2.0 0.00 0.00 0.00 64 1008.8
20260504042528 65 250 1.0 2.0 0.00 0.00 0.00 63 1008.8
20260504042031 66 250 1.0 2.0 0.00 0.00 0.00 62 1008.9
20260504041543 66 250 1.0 2.0 0.00 0.00 0.00 62 1008.9
20260504041042 66 251 1.0 2.0 0.00 0.00 0.00 61 1008.8
20260504040534 66 250 1.0 2.0 0.00 0.00 0.00 62 1008.9
20260504040047 66 250 1.0 2.0 0.00 0.00 0.00 61 1008.8
20260504035551 66 254 1.0 1.0 0.00 0.00 0.00 60 1008.8
20260504035023 66 254 0.0 0.0 0.00 0.00 0.00 60 1008.8
20260504034552 66 254 0.0 0.0 0.00 0.00 0.00 58 1008.7
20260504034102 66 254 0.0 0.0 0.00 0.00 0.00 59 1008.7
20260504033524 66 254 0.0 0.0 0.00 0.00 0.00 62 1008.6
20260504033037 66 254 0.0 0.0 0.00 0.00 0.00 65 1008.7
20260504032530 66 254 0.0 0.0 0.00 0.00 0.00 66 1008.6
20260504032103 67 254 0.0 0.0 0.00 0.00 0.00 66 1008.5
20260504031552 68 254 0.0 0.0 0.00 0.00 0.00 66 1008.5
20260504031104 69 254 0.0 0.0 0.00 0.00 0.00 58 1008.5
20260504030526 70 254 0.0 1.0 0.00 0.00 0.00 57 1008.5
20260504030039 70 254 0.0 2.0 0.00 0.00 0.00 53 1008.6
20260504025530 70 254 1.0 3.0 0.00 0.00 0.00 51 1008.6
20260504025043 71 265 1.0 3.0 0.00 0.00 0.00 52 1008.6
20260504024526 71 269 1.0 4.0 0.00 0.00 0.00 52 1008.7
20260504024039 71 257 2.0 5.0 0.00 0.00 0.00 52 1008.6
20260504023523 71 285 2.0 5.0 0.00 0.00 0.00 53 1008.6
20260504023032 71 277 2.0 6.0 0.00 0.00 0.00 52 1008.6
20260504022603 71 266 3.0 6.0 0.00 0.00 0.00 51 1008.7
20260504022033 72 283 2.0 3.0 0.00 0.00 0.00 52 1008.7
20260504021606 72 269 1.0 3.0 0.00 0.00 0.00 51 1008.8
20260504021026 72 257 1.0 3.0 0.00 0.00 0.00 51 1008.7
20260504020558 72 245 1.0 5.0 0.00 0.00 0.00 52 1008.8
20260504020046 72 273 1.0 7.0 0.00 0.00 0.00 52 1008.9
20260504015548 72 268 2.0 7.0 0.00 0.00 0.00 53 1008.9
20260504015039 72 283 2.0 6.0 0.00 0.00 0.00 53 1008.9
20260504014550 72 280 2.0 4.0 0.00 0.00 0.00 53 1009.0
20260504014058 72 282 1.0 3.0 0.00 0.00 0.00 55 1009.0
20260504013549 72 250 1.0 2.0 0.00 0.00 0.00 55 1009.0
20260504013032 72 250 0.0 2.0 0.00 0.00 0.00 56 1009.0
20260504012523 72 250 0.0 4.0 0.00 0.00 0.00 54 1009.1
20260504012027 72 264 1.0 4.0 0.00 0.00 0.00 55 1009.0
20260504011547 71 266 1.0 4.0 0.00 0.00 0.00 57 1009.2
20260504011029 71 269 2.0 4.0 0.00 0.00 0.00 59 1009.2
20260504010542 70 277 3.0 4.0 0.00 0.00 0.00 63 1009.2
20260504010048 71 299 0.0 6.0 0.00 0.00 0.00 64 1009.4
20260504005551 72 311 4.0 6.0 0.00 0.00 0.00 65 1009.4
20260504005039 73 273 3.0 6.0 0.00 0.00 0.00 53 1009.5
20260504004532 73 290 3.0 7.0 0.00 0.00 0.00 53 1009.6